Simultaneous Nadir Overpasses (SNOs) Predictions

Prediction of SNOs between METOP-B and TERRA Satellite Orbit:

Table of predicted SNOs for the next 14.0 days since TLE Epoch: 12/25/2016
Index Date (METOP-B) Time (METOP-B) Lat,Lon (METOP-B) SZA (METOP-B ) Date (TERRA) Time (TERRA) Lat,Lon (TERRA) SZA (TERRA ) Distance(km) Time Diff (sec)
1 12/25/2016 21:36:50 81.29, -97.17 107.24 12/25/2016 21:37:05 81.30, -97.15 107.25 0.41 15
2 12/25/2016 22:27:31 -81.30, 70.24 72.75 12/25/2016 22:26:32 -81.29, 70.42 72.76 3.09 59
3 12/28/2016 17:11:12 81.30, -30.45 107.11 12/28/2016 17:11:19 81.30, -30.62 107.10 2.95 7
4 12/28/2016 18:01:53 -81.30, 136.99 72.88 12/28/2016 18:00:46 -81.30, 136.97 72.92 0.46 67
5 12/31/2016 11:54:55 -81.29,-131.95 73.18 12/31/2016 11:56:06 -81.30,-131.85 73.13 1.90 71
6 12/31/2016 12:45:34 81.30, 35.87 106.88 12/31/2016 12:45:32 81.30, 35.84 106.88 0.72 2
7 01/03/2017 07:29:18 -81.29, -65.63 73.47 01/03/2017 07:30:20 -81.30, -65.45 73.42 3.18 62
8 01/03/2017 08:19:57 81.30, 102.17 106.58 01/03/2017 08:19:46 81.30, 102.23 106.58 1.11 11
9 01/06/2017 03:03:40 -81.29, 1.06 73.78 01/06/2017 03:04:34 -81.29, 0.88 73.78 2.94 54




NCC Satellite Simultaneous Nadir Overpasses (SNOs) Prediction Service
